Вернуться в каталог

STARLINK-34536

АктивенСвязьVLEO
NORAD 64748·PAYLOAD·🇺🇸 United States

Запущен Jul 2, 2025 с Cape Canaveral Space Force Station

Loading…

Ближайшие Пролёты (ближайшие 24 часа)

TLE

СвежийSource: CelesTrak SupGP

Эпоха: Sep 15, 2026, 02:53 UTC

1 64748C 25144AA  26258.12062500  .00033490  00000+0  98957-3 0  2581
2 64748  53.1612  20.6566 0001006  81.5543 201.9752 15.34370959    10

Отслеживайте STARLINK-34536 в реальном времени с AllMySat

Download on the App Store